Regional Weather Roundup
Issued by NWS

Home | Current Version | Previous Version | Graphics & Text | Print | Product List | Glossary On
Versions: 1 2 3 4 5 6 7 8 9 10 11 12 13 14 15 16 17 18 19 20 21 22 23 24 25 26 27 28 29 30 31 32 33 34 35 36 37 38 39 40 41 42 43 44 45 46 47 48 49 50
000
ASUS45 KBOI 290810
RWRID
WEATHER ROUNDUP FOR IDAHO
NATIONAL WEATHER SERVICE BOISE ID
100 AM MST THU JAN 29 2015

NOTE: "FAIR" INDICATES FEW OR NO CLOUDS BELOW 12000 FEET
WITH NO SIGNIFICANT WEATHER AND/OR OBSTRUCTIONS TO VISIBILITY

IDZ012-014-290900-
SOUTHWEST IDAHO


CITY           SKY/WX    TMP DP  RH WIND       PRES   REMARKS
BOISE          CLEAR     36  34  92 SE9       30.41R WCI  29
CALDWELL       CLEAR     30  25  80 E9        30.42S WCI  22
MOUNTAIN HOME  CLEAR     32  31  96 E9        30.42R WCI  24
$$

IDZ016-017-290900-
SOUTHCENTRAL IDAHO


CITY           SKY/WX    TMP DP  RH WIND       PRES   REMARKS
BURLEY         CLOUDY    36  33  89 NE6       30.41R WCI  31
JEROME         CLOUDY    34  32  92 E9        30.42R WCI  27
TWIN FALLS     FOG       31  28  89 E8        30.41R VSB 1/4 WCI  23
$$

IDZ019>023-290900-
SOUTHEAST IDAHO


CITY           SKY/WX    TMP DP  RH WIND       PRES   REMARKS
IDAHO FALLS    CLOUDY    35  32  88 CALM      30.43S FOG
POCATELLO      CLOUDY    35  35 100 NE5       30.43R WCI  31
REXBURG        CLOUDY    33  33 100 CALM      30.43R FOG
$$

IDZ006-010-011-018-031-032-290900-
CENTRAL IDAHO MOUNTAINS


CITY           SKY/WX    TMP DP  RH WIND       PRES   REMARKS
MCCALL         CLEAR     21  19  92 CALM      30.35S
HAILEY         FOG       28  28 100 CALM      30.42S VSB 1/4
STANLEY          N/A     16  10  77 CALM      30.41R
SALMON         PTCLDY    19  16  86 S3        30.45S
CHALLIS        CLOUDY    30  28  92 CALM      30.42S
$$

IDZ002-004-006-007-026-290900-
NORTHERN IDAHO


CITY           SKY/WX    TMP DP  RH WIND       PRES   REMARKS
LEWISTON       MOCLDY    36  35  96 CALM      30.43F
LOWELL           N/A     34  32  92 CALM      30.51S
COEUR D`ALENE  CLOUDY    34  32  93 NE9       30.44R VSB 1/2 WCI  26
MULLAN PASS    CLEAR     27  25  92 S6        30.35F WCI  20
$$


USA.gov is the U.S. government's official web portal to all federal, state and local government web resources and services.